DW4238 Weather Reports


time (UTC)temp
C
wind
direction
speed
KPH
gust
KPH
rain 1hr
cm
rain 24hr
cm
rain mn
cm
humidity
%
barometer
mb
20260508023119 17 20 8.0 14.5 0.00 0.00 0.00 78 1013.3
20260508022609 17 38 3.2 6.4 0.00 0.00 0.00 78 1013.6
20260508022112 17 51 4.8 8.0 0.00 0.00 0.00 78 1013.5
20260508021538 17 78 6.4 8.0 0.00 0.00 0.00 78 1013.4
20260508021041 17 81 4.8 9.7 0.00 0.00 0.00 78 1013.0
20260508020041 18 74 8.0 11.3 0.00 0.00 0.00 78 1013.0
20260508015553 18 69 6.4 9.7 0.00 0.00 0.00 78 1013.0
20260508014617 18 74 6.4 9.7 0.00 0.00 0.00 78 1013.1
20260508014105 18 47 4.8 6.4 0.00 0.00 0.00 77 1013.4
20260508013127 18 29 3.2 9.7 0.00 0.00 0.00 77 1013.9
20260508012610 18 5 6.4 9.7 0.00 0.00 0.00 76 1013.9
20260508012120 18 13 6.4 9.7 0.00 0.00 0.00 76 1013.7
20260508011548 18 355 6.4 9.7 0.00 0.00 0.00 76 1013.7
20260508011054 18 5 4.8 6.4 0.00 0.00 0.00 76 1013.6
20260508010114 18 37 4.8 6.4 0.00 0.00 0.00 75 1013.5
20260508005530 19 38 3.2 9.7 0.00 0.00 0.00 74 1013.6
20260508004551 19 351 4.8 11.3 0.00 0.00 0.00 74 1013.7
20260508004104 19 348 4.8 11.3 0.00 0.00 0.00 74 1013.5
20260508003609 19 38 6.4 12.9 0.00 0.00 0.00 74 1013.4
20260508003035 19 51 4.8 12.9 0.00 0.00 0.00 74 1013.4
20260508002548 19 19 3.2 14.5 0.00 0.00 0.00 74 1013.5
20260508002109 19 350 8.0 14.5 0.00 0.00 0.00 73 1013.7
20260508001541 20 350 6.4 16.1 0.00 0.00 0.00 73 1013.6
20260508001046 20 32 8.0 16.1 0.00 0.00 0.00 73 1013.8
20260508000047 20 37 11.3 14.5 0.00 0.00 0.00 72 1013.7
20260507235556 20 25 6.4 12.9 0.00 0.00 0.00 72 1013.9
20260507234616 20 348 6.4 14.5 0.00 0.00 0.00 72 1014.0
20260507234108 20 39 6.4 17.7 0.00 0.00 0.00 72 1014.3
20260507233109 20 316 9.7 17.7 0.00 0.00 0.00 70 1014.2
20260507232557 20 28 9.7 17.7 0.00 0.00 0.00 71 1014.1
20260507231535 20 16 9.7 17.7 0.00 0.00 0.00 71 1013.9
20260507231043 20 46 6.4 20.9 0.00 0.00 0.00 71 1013.9
20260507230044 20 5 6.4 20.9 0.00 0.00 0.00 71 1013.9
20260507225556 20 44 11.3 20.9 0.00 0.00 0.00 70 1014.1
20260507224557 20 5 14.5 22.5 0.00 0.00 0.00 70 1014.6
20260507224107 20 355 11.3 19.3 0.00 0.00 0.00 71 1014.3
20260507223612 20 323 11.3 20.9 0.00 0.00 0.00 72 1014.3
20260507223040 20 341 14.5 22.5 0.00 0.00 0.00 71 1014.2
20260507222529 20 341 11.3 24.1 0.00 0.00 0.00 72 1014.3
20260507222115 20 331 14.5 24.1 0.00 0.00 0.00 72 1014.2
20260507221546 20 355 9.7 20.9 0.00 0.00 0.00 72 1014.0
20260507221049 20 349 9.7 17.7 0.00 0.00 0.00 72 1013.9
20260507220640 20 355 8.0 24.1 0.00 0.00 0.00 72 1013.8
20260507220036 20 360 17.7 24.1 0.00 0.00 0.00 70 1014.0
20260507215546 20 355 11.3 19.3 0.00 0.00 0.00 72 1013.9
20260507214606 20 13 8.0 19.3 0.00 0.00 0.00 71 1013.7
20260507214117 20 26 8.0 17.7 0.00 0.00 0.00 71 1013.7
20260507213559 20 34 8.0 16.1 0.00 0.00 0.00 71 1013.6
20260507213025 20 11 6.4 16.1 0.00 0.00 0.00 71 1013.5
20260507212527 20 5 11.3 16.1 0.00 0.00 0.00 70 1013.6
20260507212117 20 41 6.4 14.5 0.00 0.00 0.00 71 1013.8
20260507211547 20 17 8.0 14.5 0.00 0.00 0.00 70 1014.2
20260507211046 20 12 6.4 14.5 0.00 0.00 0.00 70 1014.3
20260507210053 20 84 11.3 17.7 0.00 0.00 0.00 69 1014.0
20260507205555 21 24 8.0 17.7 0.00 0.00 0.00 69 1013.9
20260507204616 21 46 11.3 20.9 0.00 0.00 0.00 68 1013.8
20260507204125 21 349 8.0 20.9 0.00 0.00 0.00 68 1013.8
20260507203607 21 18 12.9 20.9 0.00 0.00 0.00 68 1014.1
20260507203033 21 26 14.5 20.9 0.00 0.00 0.00 67 1014.5
20260507202543 21 26 9.7 19.3 0.00 0.00 0.00 69 1014.7
20260507201546 21 333 9.7 20.9 0.00 0.00 0.00 68 1014.9
20260507201049 21 344 12.9 27.4 0.00 0.00 0.00 67 1014.9
20260507200558 21 5 14.5 27.4 0.00 0.00 0.00 67 1014.9
20260507200027 22 5 9.7 19.3 0.00 0.00 0.00 67 1015.0
20260507195530 22 17 9.7 16.1 0.00 0.00 0.00 68 1014.9
20260507195141 22 37 11.3 17.7 0.00 0.00 0.00 67 1015.0
20260507194539 22 13 11.3 19.3 0.00 0.00 0.00 68 1014.9
20260507194029 22 59 9.7 17.7 0.00 0.00 0.00 67 1014.7
20260507193047 21 33 11.3 24.1 0.00 0.00 0.00 69 1014.8
20260507192539 21 56 11.3 24.1 0.00 0.00 0.00 69 1014.6
20260507191604 21 52 12.9 24.1 0.00 0.00 0.00 69 1014.6
20260507191053 21 48 14.5 24.1 0.00 0.00 0.00 70 1014.5
20260507190553 21 344 9.7 24.1 0.00 0.00 0.00 71 1014.6
20260507190023 21 21 11.3 22.5 0.00 0.00 0.00 71 1014.8
20260507185527 21 351 9.7 22.5 0.00 0.00 0.00 70 1015.0
20260507185053 21 36 11.3 20.9 0.00 0.00 0.00 71 1015.0
20260507184523 21 23 12.9 20.9 0.00 0.00 0.00 70 1015.2
20260507184134 21 65 11.3 19.3 0.00 0.00 0.00 72 1015.2
20260507183619 21 25 9.7 20.9 0.00 0.00 0.00 73 1015.2
20260507183044 20 67 12.9 20.9 0.00 0.00 0.00 73 1015.2
20260507182552 20 30 9.7 22.5 0.00 0.00 0.00 74 1015.5
20260507181617 19 26 11.3 22.5 0.00 0.00 0.00 75 1016.2
20260507181059 19 65 11.3 22.5 0.00 0.00 0.00 76 1016.0
20260507180057 18 5 9.7 17.7 0.00 0.00 0.00 77 1016.4
20260507175607 18 316 8.0 16.1 0.00 0.00 0.00 77 1016.9
20260507174608 18 350 4.8 16.1 0.00 0.00 0.00 78 1016.8
20260507174057 17 346 8.0 20.9 0.00 0.00 0.00 77 1016.7
20260507173057 18 351 8.0 14.5 0.00 0.00 0.00 78 1016.4
20260507172604 17 19 8.0 14.5 0.00 0.00 0.00 79 1016.3
20260507172111 17 22 6.4 14.5 0.00 0.00 0.00 78 1016.5
20260507171539 17 39 8.0 16.1 0.00 0.00 0.00 78 1016.5
20260507171043 17 331 9.7 16.1 0.00 0.00 0.00 78 1016.4
20260507170110 17 29 6.4 19.3 0.00 0.00 0.00 80 1016.7
20260507165613 17 31 8.0 19.3 0.00 0.00 0.00 80 1016.7
20260507165122 17 315 11.3 19.3 0.00 0.00 0.00 80 1016.8
20260507164540 16 355 12.9 19.3 0.00 0.00 0.00 80 1016.9
20260507164034 16 355 11.3 17.7 0.00 0.00 0.00 81 1016.9
20260507163056 16 355 9.7 19.3 0.00 0.00 0.00 82 1016.9
20260507162558 16 360 12.9 19.3 0.00 0.00 0.00 81 1016.9
20260507161605 16 40 6.4 17.7 0.00 0.00 0.00 82 1016.9
20260507161108 16 329 11.3 22.5 0.00 0.00 0.00 81 1016.9
20260507160620 16 355 12.9 22.5 0.00 0.00 0.00 81 1016.8
20260507160040 17 339 14.5 22.5 0.00 0.00 0.00 81 1016.7
20260507155550 17 342 9.7 24.1 0.00 0.00 0.00 82 1016.5
20260507154615 16 355 16.1 24.1 0.00 0.00 0.00 82 1016.0
20260507154024 16 34 12.9 25.7 0.00 0.00 0.00 83 1015.9
20260507153528 16 355 16.1 25.7 0.00 0.00 0.00 83 1015.8
20260507153141 16 350 12.9 20.9 0.00 0.00 0.00 83 1016.0
20260507152523 16 360 12.9 22.5 0.00 0.00 0.00 84 1016.0
20260507151553 16 42 11.3 22.5 0.00 0.00 0.00 84 1015.8
20260507151057 16 5 12.9 22.5 0.00 0.00 0.00 85 1015.8
20260507150608 15 21 11.3 22.5 0.00 0.00 0.00 85 1016.0
20260507150039 15 49 14.5 22.5 0.00 0.00 0.00 85 1015.9
20260507145541 15 38 9.7 19.3 0.00 0.00 0.00 85 1016.1
20260507145051 15 5 14.5 19.3 0.00 0.00 0.00 85 1016.4
20260507144535 15 36 11.3 17.7 0.00 0.00 0.00 85 1016.6
20260507144044 15 37 8.0 20.9 0.00 0.00 0.00 86 1016.6
20260507143044 15 14 11.3 20.9 0.00 0.00 0.00 86 1016.9
20260507142554 15 44 8.0 17.7 0.00 0.00 0.00 86 1016.7
20260507142057 15 15 11.3 22.5 0.00 0.00 0.00 86 1016.6
20260507141525 15 20 11.3 22.5 0.00 0.00 0.00 86 1016.5
20260507141029 15 18 8.0 25.7 0.00 0.00 0.00 86 1016.5
20260507140636 15 20 12.9 25.7 0.00 0.00 0.00 86 1016.4
20260507140046 15 13 11.3 22.5 0.00 0.00 0.00 86 1016.5
20260507135547 15 36 11.3 22.5 0.00 0.00 0.00 86 1016.4
20260507134607 15 30 14.5 25.7 0.00 0.00 0.00 86 1016.4
20260507134117 15 18 11.3 25.7 0.00 0.00 0.00 86 1016.4
20260507133617 15 12 11.3 24.1 0.00 0.00 0.00 86 1016.3
20260507133026 15 16 12.9 24.1 0.00 0.00 0.00 86 1016.2
20260507132537 15 14 12.9 20.9 0.00 0.00 0.00 86 1016.4
20260507131559 15 28 8.0 20.9 0.00 0.00 0.00 86 1016.4
20260507131114 16 22 12.9 24.1 0.00 0.00 0.00 86 1016.4
20260507130611 16 18 12.9 24.1 0.00 0.00 0.00 86 1016.3
20260507130036 16 348 12.9 19.3 0.00 0.00 0.00 86 1016.3
20260507125540 16 27 11.3 17.7 0.00 0.00 0.00 86 1016.0
20260507124608 16 337 9.7 24.1 0.00 0.00 0.00 86 1015.8
20260507124111 16 26 9.7 24.1 0.00 0.00 0.00 86 1015.8
20260507123109 16 15 11.3 19.3 0.00 0.00 0.00 87 1015.8
20260507122618 16 27 11.3 20.9 0.00 0.00 0.00 87 1015.7
20260507122119 16 15 16.1 27.4 0.00 0.00 0.00 87 1015.7
20260507121549 16 334 17.7 27.4 0.00 0.00 0.00 88 1015.6
20260507121036 16 355 16.1 25.7 0.00 0.00 0.00 88 1015.5
20260507120640 16 338 17.7 24.1 0.00 0.00 0.00 88 1015.5
20260507120047 16 355 11.3 22.5 0.00 0.00 0.00 88 1015.3
20260507115529 16 355 11.3 20.9 0.00 0.00 0.00 88 1015.3
20260507114559 16 355 11.3 20.9 0.00 0.00 0.00 88 1014.9
20260507114102 16 333 14.5 20.9 0.00 0.00 0.00 88 1014.8
20260507113108 16 343 11.3 20.9 0.00 0.00 0.00 88 1014.8
20260507112610 16 5 11.3 19.3 0.00 0.00 0.00 88 1014.7
20260507111614 16 9 9.7 19.3 0.00 0.00 0.00 88 1014.6
20260507111103 16 346 8.0 17.7 0.00 0.00 0.00 88 1014.7
20260507110602 16 355 11.3 17.7 0.00 0.00 0.00 88 1014.6
20260507110032 16 22 4.8 17.7 0.00 0.00 0.00 88 1014.7
20260507105541 16 5 8.0 19.3 0.00 0.00 0.00 88 1015.0
20260507104539 16 315 8.0 19.3 0.00 0.00 0.00 88 1015.0
20260507104041 16 355 8.0 19.3 0.00 0.00 0.00 88 1014.3
20260507103041 16 340 11.3 20.9 0.00 0.00 0.00 88 1014.2
20260507102555 16 5 11.3 20.9 0.00 0.00 0.00 88 1013.7
20260507101553 16 9 9.7 19.3 0.00 0.00 0.00 88 1014.1
20260507101103 16 333 9.7 16.1 0.00 0.00 0.00 88 1014.2
20260507100609 16 350 12.9 20.9 0.00 0.00 0.00 88 1013.9
20260507100034 16 344 9.7 20.9 0.00 0.00 0.00 88 1013.8
20260507095538 16 350 11.3 17.7 0.00 0.00 0.00 88 1013.6
20260507094605 16 335 6.4 19.3 0.00 0.00 0.00 88 1013.5
20260507094108 16 360 8.0 19.3 0.00 0.00 0.00 88 1013.4
20260507093619 16 26 12.9 19.3 0.00 0.00 0.00 87 1013.7
20260507093042 16 360 8.0 17.7 0.00 0.00 0.00 87 1013.7
20260507092551 16 337 11.3 17.7 0.00 0.00 0.00 87 1013.8
20260507091612 16 29 6.4 12.9 0.00 0.00 0.00 87 1013.6
20260507091101 16 15 4.8 11.3 0.00 0.00 0.00 87 1013.3
20260507090100 16 14 4.8 12.9 0.00 0.00 0.00 87 1013.3
20260507085613 16 43 3.2 16.1 0.00 0.00 0.00 87 1013.0
20260507085055 16 20 6.4 14.5 0.00 0.00 0.00 87 1013.1
20260507084524 16 31 6.4 16.1 0.00 0.00 0.00 87 1012.8
20260507084027 16 59 8.0 16.1 0.00 0.00 0.00 87 1012.6
20260507083055 16 24 8.0 16.1 0.00 0.00 0.00 87 1013.0
20260507082558 16 60 8.0 14.5 0.00 0.00 0.00 86 1012.8
20260507081619 16 25 9.7 16.1 0.00 0.00 0.00 86 1013.3
20260507081129 16 30 9.7 16.1 0.00 0.00 0.00 86 1013.4
20260507080612 16 28 8.0 17.7 0.00 0.00 0.00 86 1013.6
20260507080040 16 27 8.0 17.7 0.00 0.00 0.00 86 1013.7
20260507075556 16 30 8.0 16.1 0.00 0.00 0.00 86 1013.2
20260507074614 16 26 8.0 19.3 0.00 0.00 0.00 86 1013.5
20260507074106 16 26 9.7 20.9 0.00 0.00 0.00 86 1013.1
20260507073105 16 33 9.7 19.3 0.00 0.00 0.00 86 1013.4
20260507072608 16 54 6.4 14.5 0.00 0.00 0.00 85 1013.4
20260507072054 16 69 6.4 16.1 0.00 0.00 0.00 85 1013.6
20260507071524 16 18 9.7 16.1 0.00 0.00 0.00 85 1013.9
20260507071107 16 32 6.4 16.1 0.00 0.00 0.00 85 1013.4
20260507070618 16 71 8.0 19.3 0.00 0.00 0.00 85 1013.7
20260507070035 16 89 9.7 19.3 0.00 0.00 0.00 85 1013.4
20260507065528 16 49 6.4 20.9 0.00 0.00 0.00 85 1013.8
20260507065037 16 32 11.3 20.9 0.00 0.00 0.00 85 1013.7
20260507064535 16 53 8.0 20.9 0.00 0.00 0.00 85 1013.5
20260507064045 17 324 12.9 20.9 0.00 0.00 0.00 85 1013.2
20260507063526 17 34 8.0 20.9 0.00 0.00 0.00 85 1013.7
20260507063045 17 36 9.7 20.9 0.00 0.00 0.00 85 1013.7
20260507062533 17 42 6.4 17.7 0.00 0.00 0.00 85 1014.1
20260507062043 17 360 9.7 17.7 0.00 0.00 0.00 85 1014.1
20260507061534 17 35 6.4 16.1 0.00 0.00 0.00 85 1013.9
20260507061042 17 26 8.0 19.3 0.00 0.00 0.00 85 1014.1
20260507060531 17 355 11.3 20.9 0.00 0.00 0.00 85 1013.9
20260507060024 17 24 12.9 20.9 0.00 0.00 0.00 85 1014.1
20260507055533 17 26 8.0 19.3 0.00 0.00 0.00 84 1013.9
20260507055042 17 360 11.3 25.7 0.00 0.00 0.00 84 1013.9
20260507054535 17 360 16.1 25.7 0.00 0.00 0.00 84 1013.9
20260507054023 17 15 11.3 17.7 0.00 0.00 0.00 84 1013.9
20260507053552 17 5 9.7 24.1 0.00 0.00 0.00 84 1013.5
20260507053022 17 40 14.5 24.1 0.00 0.00 0.00 84 1012.8
20260507052539 17 355 9.7 20.9 0.00 0.00 0.00 84 1013.8
20260507052048 17 339 11.3 19.3 0.00 0.00 0.00 84 1013.6
20260507051539 17 360 9.7 19.3 0.00 0.00 0.00 84 1013.3
20260507051028 17 349 8.0 19.3 0.00 0.00 0.00 83 1013.6
20260507050558 17 18 9.7 20.9 0.00 0.00 0.00 83 1013.7
20260507050057 17 349 11.3 24.1 0.00 0.00 0.00 83 1014.0
20260507045558 17 46 11.3 24.1 0.00 0.00 0.00 83 1013.6
20260507045108 17 10 8.0 20.9 0.00 0.00 0.00 83 1013.3
20260507044026 17 342 11.3 19.3 0.00 0.00 0.00 83 1013.4
20260507043634 17 15 9.7 22.5 0.00 0.00 0.00 83 1013.5
20260507043038 17 360 9.7 17.7 0.00 0.00 0.00 83 1013.4
20260507042548 17 24 9.7 22.5 0.00 0.00 0.00 83 1013.5
20260507041609 17 341 14.5 20.9 0.00 0.00 0.00 83 1013.4
20260507041058 17 5 11.3 22.5 0.00 0.00 0.00 83 1013.4
20260507040058 17 321 11.3 24.1 0.00 0.00 0.00 83 1013.4
20260507035541 17 32 9.7 19.3 0.00 0.00 0.00 83 1013.1
20260507034602 17 5 12.9 24.1 0.00 0.00 0.00 83 1013.3
20260507034032 17 24 12.9 24.1 0.00 0.00 0.00 83 1013.2
20260507033635 17 345 11.3 20.9 0.00 0.00 0.00 83 1013.1
20260507033044 17 5 11.3 24.1 0.00 0.00 0.00 83 1013.0
20260507032554 17 360 16.1 24.1 0.00 0.00 0.00 83 1013.0
20260507031615 17 347 12.9 24.1 0.00 0.00 0.00 83 1013.1
20260507031057 17 28 14.5 24.1 0.00 0.00 0.00 83 1012.7
20260507025605 17 313 14.5 25.7 0.00 0.00 0.00 83 1012.8
20260507025115 17 349 16.1 25.7 0.00 0.00 0.00 83 1012.7
20260507024534 17 306 12.9 25.7 0.00 0.00 0.00 83 1013.0
20260507024046 17 355 9.7 25.7 0.00 0.00 0.00 83 1012.3